• In India
  • List of Countries
  • For 7 days
  • Water Temperature
  • Satellite Maps
  • Weather Map
  • Weather Widgets
  • user-avatar
    Login

    Hourly Weather Swielubie

    Today, 15 December, Saturday

    Time Temperature Precipitation Wind Pressure Humidity
    00:00 0°C° 0 mm 1 mps 769 mmHg 75%
    01:00 +1°C° 0 mm 1 mps 770 mmHg 77%
    02:00 +1°C° 0 mm 1 mps 770 mmHg 78%
    03:00 +1°C° 0 mm 1 mps 770 mmHg 79%
    04:00 -1°C° 0 mm 2 mps 770 mmHg 80%
    05:00 -1°C° 0 mm 2 mps 770 mmHg 81%
    06:00 -1°C° 0 mm 2 mps 770 mmHg 83%
    07:00 +1°C° 0 mm 1 mps 770 mmHg 87%
    08:00 -1°C° 0 mm 2 mps 770 mmHg 86%
    09:00 -1°C° 0 mm 2 mps 770 mmHg 84%
    10:00 -1°C° 0 mm 2 mps 770 mmHg 83%
    11:00 +1°C° 0 mm 2 mps 770 mmHg 82%
    12:00 +1°C° 0 mm 2 mps 770 mmHg 81%
    13:00 +1°C° 0 mm 2 mps 769 mmHg 82%
    14:00 +1°C° 0 mm 2 mps 769 mmHg 84%
    15:00 -1°C° 0 mm 2 mps 769 mmHg 87%
    16:00 -1°C° 0 mm 3 mps 769 mmHg 89%
    17:00 -1°C° 0 mm 3 mps 769 mmHg 90%
    18:00 -1°C° 0 mm 3 mps 768 mmHg 90%
    19:00 -2°C° 0 mm 3 mps 768 mmHg 91%
    20:00 -2°C° 0 mm 3 mps 768 mmHg 91%
    21:00 -2°C° 0 mm 3 mps 768 mmHg 91%
    22:00 -2°C° 0 mm 3 mps 767 mmHg 91%
    23:00 -3°C° 0 mm 4 mps 767 mmHg 90%

    Tomorrow, 16 December, Sunday

    Time Temperature Precipitation Wind Pressure Humidity
    00:00 -3°C° 0 mm 4 mps 767 mmHg 90%
    01:00 -3°C° 0 mm 4 mps 766 mmHg 89%
    02:00 -3°C° 0 mm 4 mps 766 mmHg 89%
    03:00 -3°C° 0 mm 4 mps 765 mmHg 88%
    04:00 -4°C° 0 mm 4 mps 765 mmHg 88%
    05:00 -3°C° 0 mm 4 mps 764 mmHg 87%
    06:00 -3°C° 0 mm 4 mps 764 mmHg 86%
    07:00 -3°C° 0 mm 4 mps 763 mmHg 85%
    08:00 -3°C° 0 mm 4 mps 763 mmHg 82%
    09:00 -4°C° 0 mm 5 mps 763 mmHg 79%
    10:00 -2°C° 0 mm 5 mps 762 mmHg 77%
    11:00 -2°C° 0 mm 5 mps 762 mmHg 75%
    12:00 -2°C° 0 mm 4 mps 761 mmHg 73%
    13:00 -2°C° 0 mm 4 mps 761 mmHg 71%
    14:00 -2°C° 0 mm 4 mps 760 mmHg 73%
    15:00 -2°C° 0 mm 4 mps 760 mmHg 75%
    16:00 -2°C° 0 mm 3 mps 760 mmHg 78%
    17:00 -2°C° 0 mm 3 mps 760 mmHg 80%
    18:00 -3°C° 0 mm 4 mps 759 mmHg 82%
    19:00 -4°C° 0 mm 4 mps 759 mmHg 85%
    20:00 -4°C° 0 mm 4 mps 759 mmHg 84%
    21:00 -4°C° 0 mm 4 mps 759 mmHg 84%
    22:00 -4°C° 0 mm 4 mps 759 mmHg 84%
    23:00 -4°C° 0 mm 3 mps 759 mmHg 84%

    Day after tomorrow, 17 December, Monday

    Time Temperature Precipitation Wind Pressure Humidity
    00:00 -4°C° 0 mm 3 mps 759 mmHg 83%
    01:00 -4°C° 0 mm 3 mps 760 mmHg 83%
    02:00 -4°C° 0 mm 3 mps 760 mmHg 83%
    03:00 -4°C° 0 mm 3 mps 760 mmHg 82%
    04:00 -2°C° 0 mm 3 mps 760 mmHg 81%
    05:00 -2°C° 0 mm 3 mps 760 mmHg 83%
    06:00 -3°C° 0 mm 2 mps 760 mmHg 84%
    07:00 -3°C° 0 mm 2 mps 760 mmHg 86%
    08:00 -2°C° 0 mm 2 mps 761 mmHg 86%
    09:00 -2°C° 0 mm 2 mps 761 mmHg 86%
    10:00 -2°C° 0 mm 2 mps 762 mmHg 85%
    11:00 -2°C° 0 mm 2 mps 762 mmHg 84%
    12:00 +1°C° 0 mm 1 mps 762 mmHg 84%
    13:00 +1°C° 0 mm 1 mps 762 mmHg 83%
    14:00 +1°C° 0 mm 1 mps 763 mmHg 85%
    15:00 0°C° 0 mm 1 mps 763 mmHg 88%
    16:00 0°C° 0 mm 1 mps 763 mmHg 90%
    17:00 0°C° 0 mm 1 mps 764 mmHg 91%
    18:00 0°C° 0 mm 1 mps 764 mmHg 91%
    19:00 -1°C° 0 mm 1 mps 765 mmHg 92%
    20:00 0°C° 0 mm 1 mps 765 mmHg 92%
    21:00 -2°C° 0 mm 2 mps 765 mmHg 92%
    22:00 -2°C° 0 mm 2 mps 766 mmHg 92%
    23:00 -2°C° 0 mm 2 mps 766 mmHg 93%

    18 December, Tuesday

    Time Temperature Precipitation Wind Pressure Humidity
    00:00 -2°C° 0 mm 2 mps 766 mmHg 93%
    01:00 -2°C° 0 mm 2 mps 767 mmHg 93%
    02:00 -2°C° 0 mm 2 mps 767 mmHg 93%
    03:00 0°C° 0 mm 1 mps 767 mmHg 93%
    04:00 0°C° 0 mm 1 mps 767 mmHg 93%
    05:00 0°C° 0 mm 1 mps 767 mmHg 93%
    06:00 -2°C° 0 mm 2 mps 768 mmHg 93%
    07:00 -2°C° 0 mm 2 mps 768 mmHg 93%
    08:00 -2°C° 0 mm 2 mps 768 mmHg 92%
    09:00 -1°C° 0 mm 3 mps 768 mmHg 92%
    10:00 -1°C° 0 mm 3 mps 769 mmHg 91%
    11:00 -1°C° 0 mm 3 mps 769 mmHg 90%
    12:00 0°C° 0 mm 3 mps 769 mmHg 89%
    13:00 0°C° 0 mm 3 mps 769 mmHg 88%
    14:00 0°C° 0 mm 3 mps 769 mmHg 90%
    15:00 0°C° 0 mm 3 mps 769 mmHg 92%
    16:00 -1°C° 0 mm 3 mps 769 mmHg 94%
    17:00 -1°C° 0 mm 3 mps 769 mmHg 94%
    18:00 -1°C° 0 mm 3 mps 769 mmHg 95%
    19:00 -1°C° 0 mm 3 mps 769 mmHg 95%
    20:00 -1°C° 0 mm 3 mps 769 mmHg 95%
    21:00 -2°C° 0 mm 4 mps 769 mmHg 95%
    22:00 -1°C° 0 mm 4 mps 768 mmHg 94%
    23:00 -1°C° 0 mm 4 mps 768 mmHg 94%

    19 December, Wednesday

    Time Temperature Precipitation Wind Pressure Humidity
    00:00 -1°C° 0 mm 4 mps 768 mmHg 94%
    01:00 -1°C° 0 mm 4 mps 768 mmHg 94%
    02:00 -1°C° 0 mm 5 mps 768 mmHg 94%
    03:00 -2°C° 0 mm 5 mps 767 mmHg 94%
    04:00 -2°C° 0 mm 5 mps 767 mmHg 94%
    05:00 -3°C° 0 mm 6 mps 767 mmHg 92%
    06:00 -3°C° 0 mm 6 mps 767 mmHg 90%
    07:00 -3°C° 0 mm 6 mps 766 mmHg 89%
    08:00 -3°C° 0 mm 7 mps 766 mmHg 86%
    09:00 -2°C° 0 mm 7 mps 766 mmHg 84%
    10:00 -2°C° 0 mm 7 mps 766 mmHg 81%
    11:00 -2°C° 0 mm 7 mps 766 mmHg 79%
    12:00 -1°C° 0 mm 7 mps 765 mmHg 76%
    13:00 -1°C° 0 mm 7 mps 765 mmHg 73%
    14:00 -1°C° 0 mm 7 mps 765 mmHg 75%
    15:00 -2°C° 0 mm 7 mps 764 mmHg 76%
    16:00 -2°C° 0 mm 7 mps 764 mmHg 77%
    17:00 -4°C° 0 mm 8 mps 764 mmHg 78%
    18:00 -4°C° 0 mm 8 mps 764 mmHg 78%
    19:00 -4°C° 0 mm 8 mps 764 mmHg 78%
    20:00 -4°C° 0 mm 8 mps 763 mmHg 78%
    21:00 -3°C° 0 mm 7 mps 763 mmHg 78%
    22:00 -3°C° 0 mm 7 mps 763 mmHg 78%
    23:00 -3°C° 0 mm 7 mps 763 mmHg 78%

    20 December, Thursday

    Time Temperature Precipitation Wind Pressure Humidity
    00:00 -3°C° 0 mm 7 mps 763 mmHg 79%
    01:00 -3°C° 0 mm 6 mps 763 mmHg 79%
    02:00 -3°C° 0 mm 6 mps 763 mmHg 79%
    03:00 -3°C° 0 mm 6 mps 763 mmHg 79%
    04:00 -3°C° 0 mm 6 mps 763 mmHg 79%
    05:00 -3°C° 0 mm 6 mps 763 mmHg 79%
    06:00 -3°C° 0 mm 6 mps 762 mmHg 80%
    07:00 -3°C° 0 mm 6 mps 762 mmHg 80%
    08:00 -2°C° 0 mm 5 mps 763 mmHg 80%
    09:00 -2°C° 0 mm 5 mps 763 mmHg 79%
    10:00 -2°C° 0 mm 5 mps 763 mmHg 78%
    11:00 -2°C° 0 mm 5 mps 763 mmHg 77%
    12:00 -1°C° 0 mm 5 mps 763 mmHg 76%
    13:00 -1°C° 0 mm 5 mps 762 mmHg 75%
    14:00 -1°C° 0 mm 4 mps 762 mmHg 77%
    15:00 -2°C° 0 mm 4 mps 762 mmHg 79%
    16:00 -2°C° 0 mm 4 mps 763 mmHg 81%
    17:00 -2°C° 0 mm 4 mps 763 mmHg 81%
    18:00 -1°C° 0 mm 3 mps 763 mmHg 82%
    19:00 -1°C° 0 mm 3 mps 763 mmHg 82%
    20:00 -1°C° 0.2 mm 3 mps 763 mmHg 85%
    21:00 -1°C° 0.2 mm 3 mps 763 mmHg 87%
    22:00 -1°C° 0.2 mm 3 mps 763 mmHg 89%
    23:00 -1°C° 0.2 mm 3 mps 763 mmHg 91%
    Show more